FENGYUN 1C DEB, 43214

Orbit data source: Space-Track

FENGYUN 1C DEB, 43214 is space debris in SSO originally from a launch on Mon, 10 May 1999 UTC launched from the Taiyaun Space Center, China (TSC). Fengyun 1C debris stems from the Chinese weather satellite Fengyun-1C, which was intentionally destroyed by a Chinese anti-satellite missile in 2007. This event dramatically increased the amount of space debris, with thousands of trackable fragments posing hazards to satellites and human spaceflight. The Fengyun 1C debris cloud has become a focal point in discussions about space sustainability and the need for international regulations to prevent the creation of new debris.

Loading next visibility...
FENGYUN 1C DEB details
Identifier
43214, 1999-025EYN
Orbit
SSO
Last TLE update1 day ago
Origin
Flag of CNCASC (CN / PRC)
ManufacturerUnknown
MissionSpacecraft
Bus & MotorUnknown
MassUnknown
Launch date (UTC)
1999-05-10 (26 years ago)
Launch vehicleUnknown
Launch site
Taiyaun Space Center, China (TSC)
Object type
Payload
Rocket body
Debris
Shape & HBRUnknown
Radar Cross SectionSmall (<0.1 m²)

Expand to show TLE details & history

TLE from 1 day ago
0 FENGYUN 1C DEB
1 43214U 99025EYN 24360.43348934  .00008203  00000-0  37433-2 0  9997
2 43214  98.7606  61.6807 0058587 166.5579 193.7175 14.20887718353945
Epoch: 2024-12-25T10:24Z
Definitive object data (Epoch: 2024-12-25T10:24:13.478Z)
Latitude-0.00002°
Longitude171.19724°
Altitude866.271 km
Speed7.398 km/s
True Right ascension04h 06m 43s
True Declination0° 00' 00"
Sunlit
Object was in full shadow at TLE epoch
Visualization TLE readout
Latitude-72.47287°
Longitude-158.52328°
Altitude871.436 km
Speed7.404 km/s
Apparent Right ascension04h 32m 08s
Apparent Declination-58° 06' 60"
Sunlit
Object is in daylight
Visualization observer readout
Local Sidereal Time15:50:22
Azimuth196.755° SSW
Elevation-70.607°
Doppler factor1
Orbital elements
Apogee altitude861.681 km
Perigee altitude777.343 km
Semi-major axis7,197.649 km
Eccentricity0.0058587
Inclination98.7606°
RAAN61.6807°
Arg. of periapsis166.5579°
True anomaly193.55942°
Mean anomaly193.7175°
Eccentric anomaly193.63835°
Mean motion3.55433 °/min
BSTAR0.0037433
Orbital period101.29 mins
Loading maneuver chart data...
Loading historical data...
Loading historical data...
Loading historical data...
Loading historical data...
Loading historical data...
Loading historical data...
Loading historical data...

FENGYUN 1C DEB Visibility forecast

Observer location: undefined°, undefined

Span
Click to sort rows by Start time (UTC) header in descending order
Start Az.
Max El. time (UTC)
Max El. Az.
Max El.
End time (UTC)
End Az.
9 mins2024-12-26 17:24:11.783Z8.945° NNE2024-12-26 17:28:11.783Z326.048° NNW43.109°2024-12-26 17:33:11.783Z202.533° SW
6 mins2024-12-27 03:08:11.783Z98.873° ESE2024-12-27 03:10:11.783Z71.231° E20.969°2024-12-27 03:14:11.783Z18.624° NNE
9 mins2024-12-27 04:46:11.783Z190.381° SSW2024-12-27 04:50:11.783Z253.319° W36.559°2024-12-27 04:55:11.783Z333.05° NNW
|